VOI2635 MMAA-MMGL

Flight info

Callsign VOI2635
Flight time 0h 54m
Altitude 32000
Route AGLO1B/28 AGLON UT145 IGSON IGSO1B
Aircraft A320/M-FAA/L

Departure

Time 2026-05-06 01:14
Airport General Juan N. Álvarez International Airport (MMAA)

Arrival

Time 2026-05-06 02:08
Airport Guadalajara International Airport (MMGL)
Time Latitude Longitude Altitude Speed Heading
2026-05-06 00:40 16.76087 -99.75368 20 ft 0 kts 21°
2026-05-06 01:02 16.76085 -99.75369 20 ft 2 kts 21°
2026-05-06 01:02 16.76061 -99.75378 30 ft 4 kts 17°
2026-05-06 01:03 16.76034 -99.75386 22 ft 4 kts 18°
2026-05-06 01:03 16.76011 -99.75396 22 ft 4 kts 43°
2026-05-06 01:03 16.75998 -99.75418 20 ft 4 kts 84°
2026-05-06 01:03 16.76000 -99.75443 20 ft 2 kts 108°
2026-05-06 01:04 16.76002 -99.75452 20 ft 0 kts 107°
2026-05-06 01:06 16.76002 -99.75450 20 ft 1 kts 107°
2026-05-06 01:06 16.75997 -99.75435 20 ft 3 kts 107°
2026-05-06 01:06 16.75989 -99.75406 22 ft 5 kts 107°
2026-05-06 01:07 16.75973 -99.75368 20 ft 7 kts 128°
2026-05-06 01:07 16.75914 -99.75346 20 ft 12 kts 158°
2026-05-06 01:07 16.75871 -99.75259 20 ft 13 kts 108°
2026-05-06 01:07 16.75863 -99.75233 20 ft 0 kts 108°
2026-05-06 01:08 16.75857 -99.75214 21 ft 8 kts 108°
2026-05-06 01:08 16.75829 -99.75123 21 ft 15 kts 108°
2026-05-06 01:08 16.75794 -99.75010 19 ft 17 kts 108°
2026-05-06 01:09 16.75755 -99.74886 22 ft 19 kts 108°
2026-05-06 01:09 16.75712 -99.74750 21 ft 21 kts 108°
2026-05-06 01:09 16.75665 -99.74602 20 ft 22 kts 108°
2026-05-06 01:09 16.75615 -99.74441 20 ft 24 kts 107°
2026-05-06 01:10 16.75560 -99.74269 20 ft 25 kts 109°
2026-05-06 01:10 16.75505 -99.74091 20 ft 27 kts 108°
2026-05-06 01:10 16.75446 -99.73901 20 ft 28 kts 108°
2026-05-06 01:10 16.75381 -99.73699 20 ft 30 kts 108°
2026-05-06 01:11 16.75315 -99.73485 20 ft 32 kts 108°
2026-05-06 01:11 16.75252 -99.73337 20 ft 18 kts 144°
2026-05-06 01:11 16.75155 -99.73350 21 ft 0 kts 199°
2026-05-06 01:12 16.75153 -99.73350 21 ft 1 kts 199°
2026-05-06 01:12 16.75131 -99.73358 21 ft 7 kts 199°
2026-05-06 01:13 16.75086 -99.73389 21 ft 7 kts 265°
2026-05-06 01:13 16.75100 -99.73432 21 ft 9 kts 289°
2026-05-06 01:13 16.75161 -99.73623 19 ft 54 kts 288°
2026-05-06 01:13 16.75342 -99.74204 20 ft 111 kts 288°
2026-05-06 01:14 16.75975 -99.76175 476 ft 152 kts 288°
2026-05-06 01:14 16.76334 -99.77208 969 ft 153 kts 287°
2026-05-06 01:14 16.76685 -99.78334 1297 ft 174 kts 287°
2026-05-06 01:15 16.77070 -99.79619 1615 ft 197 kts 285°
2026-05-06 01:15 16.77492 -99.81027 2003 ft 216 kts 287°
2026-05-06 01:15 16.77965 -99.82574 2673 ft 225 kts 286°
2026-05-06 01:15 16.78446 -99.84123 3433 ft 229 kts 288°
2026-05-06 01:16 16.78944 -99.85715 4262 ft 232 kts 289°
2026-05-06 01:16 16.79716 -99.87213 4790 ft 245 kts 310°
2026-05-06 01:16 16.81143 -99.88297 5153 ft 266 kts 338°
2026-05-06 01:16 16.82957 -99.88827 5780 ft 274 kts 345°
2026-05-06 01:17 16.84824 -99.89330 6446 ft 280 kts 345°
2026-05-06 01:17 16.86720 -99.89850 7101 ft 284 kts 345°
2026-05-06 01:17 16.88643 -99.90381 7780 ft 288 kts 345°
2026-05-06 01:17 16.89928 -99.90738 8221 ft 290 kts 345°
2026-05-06 01:18 16.91892 -99.91286 8892 ft 294 kts 346°
2026-05-06 01:18 16.93882 -99.91842 9545 ft 298 kts 346°
2026-05-06 01:18 16.95837 -99.92582 10152 ft 303 kts 332°
2026-05-06 01:18 16.97586 -99.93873 10548 ft 317 kts 323°
2026-05-06 01:19 16.99349 -99.95358 10773 ft 333 kts 322°
2026-05-06 01:19 17.01160 -99.96910 11299 ft 339 kts 322°
2026-05-06 01:19 17.02984 -99.98483 11882 ft 342 kts 321°
2026-05-06 01:19 17.04829 -100.00073 12450 ft 345 kts 322°
2026-05-06 01:20 17.06690 -100.01672 13019 ft 348 kts 322°
2026-05-06 01:20 17.08574 -100.03288 13616 ft 352 kts 322°
2026-05-06 01:20 17.10480 -100.04919 14105 ft 356 kts 322°
2026-05-06 01:20 17.12405 -100.06564 14599 ft 359 kts 322°
2026-05-06 01:21 17.14351 -100.08226 15095 ft 364 kts 322°
2026-05-06 01:21 17.16318 -100.09906 15615 ft 366 kts 322°
2026-05-06 01:21 17.18300 -100.11601 16103 ft 370 kts 322°
2026-05-06 01:21 17.20299 -100.13311 16588 ft 374 kts 321°
2026-05-06 01:22 17.22322 -100.15043 17067 ft 377 kts 321°
2026-05-06 01:22 17.24364 -100.16789 17530 ft 381 kts 322°
2026-05-06 01:22 17.26427 -100.18552 17857 ft 385 kts 321°
2026-05-06 01:22 17.28510 -100.20337 17929 ft 387 kts 321°
2026-05-06 01:23 17.30588 -100.22120 17938 ft 385 kts 321°
2026-05-06 01:23 17.32655 -100.23894 17936 ft 384 kts 321°
2026-05-06 01:23 17.34723 -100.25666 17948 ft 384 kts 321°
2026-05-06 01:23 17.36794 -100.27441 17948 ft 384 kts 321°
2026-05-06 01:24 17.38861 -100.29215 17939 ft 384 kts 321°
2026-05-06 01:24 17.40930 -100.30989 17942 ft 384 kts 321°
2026-05-06 01:24 17.42998 -100.32764 17942 ft 384 kts 321°
2026-05-06 01:24 17.45034 -100.34514 17942 ft 384 kts 321°
2026-05-06 01:25 17.47098 -100.36290 17942 ft 384 kts 321°
2026-05-06 01:25 17.49163 -100.38067 17966 ft 384 kts 321°
2026-05-06 01:25 17.51233 -100.39848 18442 ft 386 kts 321°
2026-05-06 01:25 17.53314 -100.41636 18909 ft 388 kts 321°
2026-05-06 01:26 17.55413 -100.43439 19351 ft 391 kts 321°
2026-05-06 01:26 17.57525 -100.45256 19770 ft 394 kts 321°
2026-05-06 01:26 17.59659 -100.47090 20180 ft 397 kts 321°
2026-05-06 01:26 17.61800 -100.48933 20551 ft 400 kts 321°
2026-05-06 01:27 17.63960 -100.50795 20961 ft 403 kts 321°
2026-05-06 01:27 17.66132 -100.52671 21380 ft 406 kts 321°
2026-05-06 01:27 17.68315 -100.54552 21805 ft 408 kts 321°
2026-05-06 01:27 17.70521 -100.56453 22202 ft 411 kts 321°
2026-05-06 01:28 17.72705 -100.58337 22602 ft 415 kts 321°
2026-05-06 01:28 17.74946 -100.60272 22950 ft 419 kts 321°
2026-05-06 01:28 17.77208 -100.62226 23338 ft 423 kts 321°
2026-05-06 01:28 17.79490 -100.64194 23689 ft 426 kts 321°
2026-05-06 01:29 17.81794 -100.66178 24050 ft 429 kts 321°
2026-05-06 01:29 17.84105 -100.68170 24443 ft 431 kts 321°
2026-05-06 01:29 17.86422 -100.70169 24758 ft 432 kts 321°
2026-05-06 01:29 17.88753 -100.72182 25163 ft 434 kts 320°
2026-05-06 01:30 17.91085 -100.74200 25539 ft 436 kts 320°
2026-05-06 01:30 17.93430 -100.76232 25899 ft 438 kts 320°
2026-05-06 01:30 17.95783 -100.78271 26277 ft 439 kts 320°
2026-05-06 01:30 17.98147 -100.80317 26634 ft 441 kts 320°
2026-05-06 01:31 18.00467 -100.82321 27651 ft 421 kts 320°
2026-05-06 01:31 18.02678 -100.84229 28821 ft 401 kts 319°
2026-05-06 01:31 18.04787 -100.86052 29820 ft 388 kts 319°
2026-05-06 01:31 18.06856 -100.87843 30343 ft 384 kts 319°
2026-05-06 01:32 18.08921 -100.89636 30565 ft 389 kts 318°
2026-05-06 01:32 18.11023 -100.91461 30682 ft 395 kts 319°
2026-05-06 01:32 18.15349 -100.95221 30873 ft 411 kts 318°
2026-05-06 01:33 18.17579 -100.97159 30993 ft 419 kts 318°
2026-05-06 01:33 18.19814 -100.99100 31109 ft 426 kts 318°
2026-05-06 01:33 18.22119 -101.01102 31232 ft 432 kts 318°
2026-05-06 01:33 18.24486 -101.03155 31394 ft 439 kts 318°
2026-05-06 01:34 18.29233 -101.07275 31586 ft 451 kts 318°
2026-05-06 01:34 18.31668 -101.09394 31738 ft 456 kts 318°
2026-05-06 01:34 18.34098 -101.11510 31793 ft 447 kts 318°
2026-05-06 01:35 18.36457 -101.13559 31796 ft 431 kts 318°
2026-05-06 01:35 18.38734 -101.15534 31761 ft 417 kts 318°
2026-05-06 01:35 18.43147 -101.19377 31763 ft 408 kts 318°
2026-05-06 01:36 18.47512 -101.23199 31760 ft 408 kts 317°
2026-05-06 01:36 18.51875 -101.27015 31730 ft 407 kts 317°
2026-05-06 01:37 18.56239 -101.30826 31758 ft 408 kts 318°
2026-05-06 01:37 18.60603 -101.34638 31773 ft 407 kts 317°
2026-05-06 01:38 18.64945 -101.38432 31758 ft 408 kts 317°
2026-05-06 01:38 18.69314 -101.42245 31758 ft 407 kts 317°
2026-05-06 01:39 18.73675 -101.46066 31797 ft 407 kts 317°
2026-05-06 01:39 18.78034 -101.49896 31799 ft 407 kts 317°
2026-05-06 01:40 18.82364 -101.53698 31796 ft 407 kts 317°
2026-05-06 01:40 18.86727 -101.57524 31796 ft 408 kts 317°
2026-05-06 01:41 18.91095 -101.61346 31832 ft 408 kts 317°
2026-05-06 01:41 18.95459 -101.65176 31832 ft 407 kts 317°
2026-05-06 01:42 18.99574 -101.68802 31832 ft 407 kts 317°
2026-05-06 01:42 19.03926 -101.72638 31850 ft 407 kts 317°
2026-05-06 01:43 19.08283 -101.76469 31852 ft 407 kts 317°
2026-05-06 01:43 19.12633 -101.80301 31866 ft 406 kts 317°
2026-05-06 01:44 19.16975 -101.84127 31957 ft 406 kts 317°
2026-05-06 01:44 19.21284 -101.87931 32019 ft 406 kts 317°
2026-05-06 01:45 19.25621 -101.91761 32078 ft 406 kts 317°
2026-05-06 01:45 19.29960 -101.95591 32148 ft 406 kts 317°
2026-05-06 01:46 19.34308 -101.99445 32169 ft 413 kts 317°
2026-05-06 01:46 19.36543 -102.01428 32172 ft 424 kts 317°
2026-05-06 01:46 19.38822 -102.03395 32156 ft 418 kts 322°
2026-05-06 01:47 19.43924 -102.06268 31781 ft 421 kts 332°
2026-05-06 01:47 19.46581 -102.07590 31398 ft 422 kts 332°
2026-05-06 01:47 19.49240 -102.08913 31004 ft 421 kts 332°
2026-05-06 01:48 19.51893 -102.10232 30613 ft 420 kts 332°
2026-05-06 01:48 19.54536 -102.11549 30222 ft 419 kts 332°
2026-05-06 01:48 19.57170 -102.12861 29778 ft 418 kts 332°
2026-05-06 01:48 19.59794 -102.14167 29320 ft 416 kts 332°
2026-05-06 01:49 19.62410 -102.15469 28883 ft 415 kts 333°
2026-05-06 01:49 19.65022 -102.16769 28443 ft 414 kts 333°
2026-05-06 01:49 19.67624 -102.18064 27995 ft 412 kts 333°
2026-05-06 01:49 19.70215 -102.19354 27549 ft 411 kts 333°
2026-05-06 01:50 19.72803 -102.20646 27156 ft 410 kts 333°
2026-05-06 01:50 19.75346 -102.21916 26772 ft 409 kts 333°
2026-05-06 01:50 19.77917 -102.23201 26388 ft 407 kts 333°
2026-05-06 01:50 19.80470 -102.24479 25980 ft 405 kts 333°
2026-05-06 01:51 19.83011 -102.25752 25601 ft 403 kts 333°
2026-05-06 01:51 19.85538 -102.27017 25234 ft 401 kts 333°
2026-05-06 01:51 19.87924 -102.28511 24868 ft 396 kts 319°
2026-05-06 01:51 19.89855 -102.30555 24510 ft 389 kts 304°
2026-05-06 01:52 19.91231 -102.33002 24005 ft 385 kts 289°
2026-05-06 01:52 19.92149 -102.35669 23534 ft 385 kts 286°
2026-05-06 01:52 19.93044 -102.38361 22989 ft 387 kts 286°
2026-05-06 01:52 19.93944 -102.41066 22429 ft 389 kts 286°
2026-05-06 01:53 19.94847 -102.43782 21875 ft 390 kts 286°
2026-05-06 01:53 19.95753 -102.46505 21330 ft 391 kts 286°
2026-05-06 01:53 19.96656 -102.49210 20785 ft 383 kts 287°
2026-05-06 01:53 19.97535 -102.51836 20263 ft 372 kts 287°
2026-05-06 01:54 19.98391 -102.54394 19746 ft 363 kts 287°
2026-05-06 01:54 19.99227 -102.56897 19246 ft 356 kts 287°
2026-05-06 01:54 20.00201 -102.59293 18743 ft 353 kts 299°
2026-05-06 01:54 20.01702 -102.61346 18257 ft 352 kts 315°
2026-05-06 01:55 20.03569 -102.63022 17701 ft 349 kts 317°
2026-05-06 01:55 20.05321 -102.64736 17142 ft 344 kts 314°
2026-05-06 01:55 20.06989 -102.66541 16622 ft 340 kts 312°
2026-05-06 01:55 20.08607 -102.68361 16111 ft 336 kts 311°
2026-05-06 01:56 20.10210 -102.70160 15605 ft 333 kts 312°
2026-05-06 01:56 20.11812 -102.71923 15120 ft 330 kts 313°
2026-05-06 01:56 20.13414 -102.73654 14626 ft 327 kts 313°
2026-05-06 01:56 20.15010 -102.75357 14122 ft 323 kts 314°
2026-05-06 01:57 20.16601 -102.77041 13638 ft 321 kts 314°
2026-05-06 01:57 20.18167 -102.78692 13215 ft 312 kts 315°
2026-05-06 01:57 20.19687 -102.80298 12849 ft 306 kts 314°
2026-05-06 01:57 20.21188 -102.81889 12493 ft 299 kts 314°
2026-05-06 01:58 20.22632 -102.83422 12139 ft 287 kts 314°
2026-05-06 01:58 20.24022 -102.84899 11802 ft 277 kts 314°
2026-05-06 01:58 20.25360 -102.86322 11473 ft 267 kts 314°
2026-05-06 01:58 20.26661 -102.87706 11122 ft 263 kts 314°
2026-05-06 01:59 20.27949 -102.89072 10790 ft 259 kts 314°
2026-05-06 01:59 20.29205 -102.90408 10478 ft 251 kts 314°
2026-05-06 01:59 20.30418 -102.91702 10210 ft 241 kts 314°
2026-05-06 01:59 20.31568 -102.92929 10048 ft 227 kts 314°
2026-05-06 02:00 20.32670 -102.94104 9944 ft 224 kts 311°
2026-05-06 02:00 20.33775 -102.95280 9778 ft 225 kts 312°
2026-05-06 02:00 20.34868 -102.96445 9604 ft 225 kts 312°
2026-05-06 02:00 20.35976 -102.97626 9442 ft 225 kts 313°
2026-05-06 02:01 20.37081 -102.98799 9266 ft 222 kts 313°
2026-05-06 02:01 20.38162 -102.99944 9090 ft 214 kts 313°
2026-05-06 02:01 20.39200 -103.01056 8908 ft 207 kts 310°
2026-05-06 02:01 20.40016 -103.02250 8762 ft 195 kts 297°
2026-05-06 02:02 20.40588 -103.03541 8683 ft 191 kts 292°
2026-05-06 02:02 20.41123 -103.04843 8668 ft 193 kts 292°
2026-05-06 02:02 20.41671 -103.06153 8663 ft 194 kts 292°
2026-05-06 02:02 20.42220 -103.07457 8549 ft 191 kts 293°
2026-05-06 02:03 20.42764 -103.08746 8352 ft 189 kts 293°
2026-05-06 02:03 20.43305 -103.10030 8148 ft 191 kts 292°
2026-05-06 02:03 20.43847 -103.11313 7922 ft 189 kts 293°
2026-05-06 02:03 20.44385 -103.12589 7908 ft 188 kts 293°
2026-05-06 02:04 20.44911 -103.13837 7707 ft 186 kts 294°
2026-05-06 02:04 20.45429 -103.15064 7506 ft 177 kts 294°
2026-05-06 02:04 20.45921 -103.16232 7324 ft 169 kts 294°
2026-05-06 02:04 20.46390 -103.17344 7147 ft 159 kts 294°
2026-05-06 02:05 20.46831 -103.18391 7013 ft 153 kts 294°
2026-05-06 02:05 20.47257 -103.19402 6844 ft 147 kts 294°
2026-05-06 02:05 20.47672 -103.20387 6683 ft 145 kts 294°
2026-05-06 02:05 20.48082 -103.21361 6541 ft 143 kts 294°
2026-05-06 02:06 20.48487 -103.22325 6382 ft 142 kts 294°
2026-05-06 02:06 20.48890 -103.23281 6237 ft 142 kts 294°
2026-05-06 02:06 20.49299 -103.24248 6117 ft 145 kts 295°
2026-05-06 02:06 20.49725 -103.25244 5957 ft 149 kts 293°
2026-05-06 02:07 20.50146 -103.26271 5753 ft 152 kts 291°
2026-05-06 02:07 20.50582 -103.27298 5512 ft 152 kts 291°
2026-05-06 02:07 20.51021 -103.28343 5309 ft 156 kts 292°
2026-05-06 02:07 20.51463 -103.29399 5042 ft 156 kts 293°
2026-05-06 02:08 20.51851 -103.30323 5018 ft 113 kts 294°
2026-05-06 02:08 20.52117 -103.30957 5022 ft 76 kts 294°
2026-05-06 02:08 20.52288 -103.31358 5022 ft 34 kts 296°
2026-05-06 02:08 20.52406 -103.31512 5020 ft 23 kts 321°
2026-05-06 02:09 20.52495 -103.31581 5021 ft 13 kts 324°
2026-05-06 02:09 20.52571 -103.31586 5021 ft 12 kts 21°
2026-05-06 02:09 20.52652 -103.31548 5021 ft 15 kts 24°
2026-05-06 02:09 20.52760 -103.31493 5021 ft 16 kts 47°
2026-05-06 02:10 20.52744 -103.31405 5020 ft 3 kts 114°
2026-05-06 02:10 20.52734 -103.31382 5018 ft 4 kts 114°
2026-05-06 02:10 20.52721 -103.31351 5020 ft 5 kts 114°
2026-05-06 02:10 20.52701 -103.31304 5020 ft 9 kts 114°
2026-05-06 02:11 20.52667 -103.31223 5020 ft 14 kts 114°
2026-05-06 02:11 20.52620 -103.31110 5018 ft 19 kts 114°
2026-05-06 02:11 20.52562 -103.30971 5020 ft 21 kts 114°
2026-05-06 02:11 20.52534 -103.30911 5020 ft 4 kts 117°
2026-05-06 02:12 20.52520 -103.30880 5020 ft 5 kts 115°
2026-05-06 02:12 20.52505 -103.30845 5020 ft 6 kts 115°
2026-05-06 02:12 20.52501 -103.30800 5020 ft 7 kts 75°
2026-05-06 02:12 20.52496 -103.30740 5020 ft 11 kts 77°
2026-05-06 02:13 20.52531 -103.30639 5015 ft 16 kts 69°
2026-05-06 02:13 20.52511 -103.30559 5020 ft 12 kts 163°
2026-05-06 02:13 20.52439 -103.30509 5016 ft 13 kts 121°
2026-05-06 02:13 20.52424 -103.30419 5020 ft 11 kts 51°
2026-05-06 02:14 20.52456 -103.30360 5020 ft 11 kts 109°
2026-05-06 02:14 20.52437 -103.30302 5020 ft 8 kts 110°
2026-05-06 02:14 20.52419 -103.30245 5018 ft 9 kts 108°
2026-05-06 02:14 20.52399 -103.30182 5020 ft 10 kts 108°
2026-05-06 02:15 20.52377 -103.30109 5017 ft 11 kts 108°
2026-05-06 02:15 20.52366 -103.30075 5018 ft 3 kts 109°
2026-05-06 02:15 20.52364 -103.30055 5017 ft 3 kts 78°
2026-05-06 02:15 20.52382 -103.30043 5018 ft 4 kts 22°
2026-05-06 02:16 20.52393 -103.30039 5020 ft 2 kts 19°
2026-05-06 02:16 20.52410 -103.30033 5017 ft 3 kts 17°
2026-05-06 02:16 20.52414 -103.30031 5020 ft 1 kts 17°
2026-05-06 02:16 20.52415 -103.30031 5020 ft 0 kts 17°